Probability
0 0 0 0 0 0 0 0 0 0 0 0 0 0 0 0 0 0 0 0 0 0 0 0 0 0 0 0 0 0 0 0 0 0 0 0 0 0 0 0 0 0 0
0 0 0 0 0 0 0 0 0 0 0 0 0 0 0 0 0 0 0 0 0 0 0 0 0 0 0 0 0 0 0 0 0 0 0 0 0 0 0 0 0 0 0
0 0 0 0 0 0 0 0 0 0 0 0 0 0 0 0 0 0 0 0 0 0 0 0 0 0 0 0 0 0 0 0 0 0 0 0 0 0 0 0 0 0 0
0 0 0 0 0 0 0 0 0 0 0 0 0 0 0 0 0 0 0 0 0 0 0 0 0 0 0 0 0 0 0 0 0 0 0 0 0 0 0 0 0 0 0
0 0 0 0 0 0 0 0 0 0 0 0 0 0 0 0 0 0 0 0 0 0 0 0 0 0 0 0 0 0 0 0 0 0 0 0 0 0 0 0 0 0 0
0 0 0 0 0 0 0 0 0 0 0 0 0 0 0 0 0 0 0 0 0 0 0 0 0 0 0 0 0 0 0 0 0 0 0 0 0 0 0 0 0 0 0
0 0 0 0 0 0 0 0 0 0 0 0 0 0 0 0 0 0 0 0 0 0 0 0 0 0 0 0 0 0 0 0 0 0 0 0 0 0 0 0 0 0 0
0 0 0 0 0 0 0 0 0 0 0 0 0 0 0 0 0 0 0 0 0 0 0 0 0 0 0 0 0 0 0 0 0 0 0 0 0 0 0 0 0 0 0
0 0 0 0 0 0 0 0 0 0 0 0 0 0 0 0 0 0 0 0 0 0 0 0 0 0 0 0 0 0 0 0 0 0 0 0 0 0 0 0 0 0 0
0 0 0 0 0 0 0 0 0 0 0 0 0 0 0 0 0 0 0 0 0 0 0 0 0 0 0 0 0 0 0 0 0 0 0 0 0 0 0 0 0 0 0
0 0 0 0 0 0 0 0 0 0 0 0 0 0 0 0 0 0 0 0 0 0 0 0 0 0 0 0 0 0 0 0 0 0 0 0 0 0 0 0 0 0 0
0 0 0 0 0 0 0 0 0 0 0 0 0 0 0 0 0 0 0 0 0 0 0 0 0 0 0 0 0 0 0 0 0 0 0 0 0 0 0 0 0 0 0
0 0 0 0 0 0 0 0 0 0 0 0 0 0 0 0 0 0 0 0 0 0 0 0 0 0 0 0 0 0 0 0 0 0 0 0 0 0 0 0 0 0 0
0 0 0 0 0 0 0 0 0 0 0 0 0 0 0 0 0 0 0 0 0 0 0 0 0 0 0 0 0 0 0 0 0 0 0 0 0 0 0 0 0 0 0
0 0 0 0 0 0 0 0 0 0 0 0 0 0 0 0 0 0 0 0 0 0 0 0 0 0 0 0 0 0 0 0 0 0 0 0 0 0 0 0 0 0 0
0 0 0 0 0 0 0 0 0 0 0 0 0 0 0 0 0 0 0 0 0 0 0 0 0 0 0 0 0 0 0 0 0 0 0 0 0 0 0 0 0 0 0
0 0 0 0 0 0 0 0 0 0 0 0 0 0 0 0 0 0 0 0 0 0 0 0 0 0 0 0 0 0 0 0 0 0 0 0 0 0 0 0 0 0 0
0 0 0 0 0 0 0 0 0 0 0 0 0 0 0 0 0 0 0 0 0 0 0 0 0 0 0 0 0 0 0 0 0 0 0 0 0 0 0 0 0 0 0
0 0 0 0 0 0 0 0 0 0 0 0 0 0 0 0 0 0 0 0 0 0 0 0 0 0 0 0 0 0 0 0 0 0 0 0 0 0 0 0 0 0 0
0 0 0 0 0 0 0 0 0 0 0 0 0 0 0 0 0 0 0 0 0 0 0 0 0 0 0 0 0 0 0 0 0 0 0 0 0 0 0 0 0 0 0
0 0 0 0 0 0 0 0 0 0 0 0 0 0 0 0 0 0 0 0 0 0 0 0 0 0 0 0 0 0 0 0 0 0 0 0 0 0 0 0 0 0 0
0 0 0 0 0 0 0 0 0 0 0 0 0 0 0 0 0 0 0 0 0 0 0 0 0 0 0 0 0 0 0 0 0 0 0 0 0 0 0 0 0 0 0
0 0 0 0 0 0 0 0 0 0 0 0 0 0 0 0 0 0 0 0 0 0 0 0 0 0 0 0 0 0 0 0 0 0 0 0 0 0 0 0 0 0 0
0 0 0 0 0 0 0 0 0 0 0 0 0 0 0 0 0 0 0 0 0 0 0 0 0 0 0 0 0 0 0 0 0 0 0 0 0 0 0 0 0 0 0
0 0 0 0 0 0 0 0 0 0 0 0 0 0 0 0 0 0 0 0 0 0 0 0 0 0 0 0 0 0 0 0 0 0 0 0 0 0 0 0 0 0 0
0 0 0 0 0 0 0 0 0 0 0 0 0 0 0 0 0 0 0 0 0 0 0 0 0 0 0 0 0 0 0 0 0 0 0 0 0 0 0 0 0 0 0
Wind_Speed
9 10 10 11 12 12 13 13 13 14 14 15 15 16 16 17 17 17 18 18 19 20 20 20 20 20 20 20 20 20 20 20 21 22 22 22 22 22 22 20 18 13 21
13 12 11 11 12 12 13 13 13 13 14 14 15 16 16 17 17 17 17 18 19 19 19 20 20 20 20 19 19 18 18 17 17 19 20 19 21 21 21 20 19 14 20
14 12 11 11 12 12 12 12 12 13 14 14 15 15 16 16 16 17 17 17 18 19 19 19 19 19 19 18 18 17 16 15 15 17 16 10 13 20 20 20 19 19 19
13 12 11 12 12 13 12 12 12 13 14 14 15 15 15 16 16 17 17 17 18 18 18 18 18 18 18 17 17 16 16 15 16 16 10 9 9 18 19 19 19 19 18
11 11 12 12 13 13 13 12 12 13 14 14 14 15 15 16 16 16 16 17 17 18 18 18 18 18 17 16 15 15 14 13 15 13 9 8 7 17 18 18 18 17 17
11 12 11 12 13 13 13 13 13 13 14 14 14 14 15 15 15 15 16 16 17 17 17 17 17 17 16 15 14 14 14 14 12 9 8 7 7 15 17 17 16 16 15
11 11 11 11 12 12 13 13 13 13 14 14 14 14 14 14 14 14 15 15 16 16 16 16 16 16 15 14 13 13 13 12 9 8 7 6 8 15 16 15 15 14 14
11 11 10 10 11 11 12 12 12 13 13 13 13 13 13 13 13 14 14 15 15 15 15 15 15 15 14 12 11 11 11 10 10 9 7 6 10 13 14 14 13 13 13
11 11 9 8 10 10 11 11 12 11 12 12 13 12 12 12 13 12 12 13 14 14 14 14 14 13 12 11 9 9 9 8 7 6 8 5 9 13 13 13 12 12 12
8 9 9 8 8 8 8 11 12 12 12 12 12 12 12 12 11 10 10 12 13 13 13 12 12 11 10 8 5 6 7 5 7 7 4 5 10 11 12 12 12 12 12
7 7 8 8 8 8 8 10 10 11 11 11 9 11 9 6 6 6 9 10 11 11 11 10 9 8 7 4 2 4 4 3 6 5 4 7 10 11 11 11 12 12 13
8 7 7 8 8 8 8 7 6 6 6 6 5 5 3 4 5 8 9 9 9 9 8 7 6 5 3 2 0 2 2 4 4 5 4 9 10 10 11 11 12 12 13
8 7 6 7 7 7 6 6 4 4 4 5 6 5 4 5 5 5 3 4 4 5 4 3 3 1 2 2 2 2 3 3 3 4 4 8 9 10 11 11 12 13 14
9 8 6 7 7 7 6 5 4 4 3 3 5 5 4 3 4 4 3 4 3 2 3 2 1 2 3 2 3 3 3 3 3 3 4 8 9 10 11 11 12 13 14
10 10 8 6 7 6 5 4 4 4 4 4 4 4 5 4 4 4 3 3 3 3 2 2 3 2 2 2 2 3 3 3 3 4 4 8 9 10 11 12 13 14 14
12 12 9 8 7 7 5 4 4 4 4 5 4 5 5 4 4 4 4 3 3 3 3 2 3 2 2 1 1 2 2 3 3 4 5 6 10 11 12 13 13 14 15
12 12 11 9 8 8 7 6 4 4 4 4 5 6 5 5 5 4 4 3 3 3 3 2 2 1 1 1 1 1 1 2 2 4 5 5 6 11 13 13 14 14 15
11 13 13 10 9 9 7 6 4 4 5 4 5 5 6 6 6 5 4 4 4 4 3 2 2 2 2 1 1 1 1 2 3 4 4 4 5 5 9 14 14 15 15
12 13 14 12 11 10 8 6 5 5 5 5 5 5 6 6 6 5 4 4 5 4 3 3 2 2 2 1 1 1 1 2 3 4 5 5 5 6 5 10 13 14 16
12 12 13 13 12 10 8 6 5 5 5 5 5 6 8 7 7 6 4 6 6 4 3 3 3 2 1 2 1 0 1 2 3 4 5 5 5 5 5 5 5 9 15
12 13 14 14 14 11 9 9 8 7 6 5 5 7 8 8 8 7 5 5 6 5 5 5 4 3 3 2 1 0 1 2 4 4 4 4 4 5 5 5 4 4 5
14 14 14 15 15 14 11 10 7 7 6 6 5 7 9 9 9 8 7 6 6 5 6 6 5 3 3 3 3 2 2 1 2 3 4 4 4 4 5 6 5 5 4
15 16 14 16 16 16 13 9 7 6 5 6 8 8 9 10 10 9 9 8 7 7 7 7 7 6 4 4 3 3 3 4 3 2 4 4 4 4 4 4 5 5 5
16 14 14 15 16 16 15 13 14 12 11 11 8 8 8 10 10 11 10 10 9 7 7 8 8 6 6 4 3 3 2 3 4 3 2 3 5 5 4 4 4 4 5
15 14 14 14 15 16 16 16 15 12 10 8 8 9 10 9 10 11 11 10 10 9 9 9 8 8 6 6 4 3 2 1 2 4 4 3 2 3 4 4 4 3 4
13 13 13 14 15 16 17 17 17 16 13 11 12 12 10 8 10 12 12 11 11 9 10 10 10 10 8 7 5 5 5 4 4 4 4 4 4 3 3 3 4 3 3
Wind_Direction
117 120 124 119 115 110 106 103 99 97 95 92 93 93 92 90 88 87 87 86 84 82 80 78 77 76 75 74 74 73 73 73 73 71 67 66 65 63 62 62 61 56 61
120 122 124 120 116 112 110 106 103 101 100 98 96 96 95 93 90 89 88 87 86 84 82 81 79 77 76 76 75 74 73 73 76 76 69 65 65 64 63 62 62 60 60
118 124 124 118 117 114 111 108 105 105 103 101 99 98 96 94 92 91 90 89 88 86 84 82 81 79 78 77 75 74 71 68 71 72 69 63 63 64 63 61 60 59 59
124 131 124 120 119 117 113 109 107 106 104 103 101 99 97 94 92 92 92 91 90 88 86 84 82 81 79 77 75 72 67 63 70 72 65 58 60 65 64 62 60 58 57
123 118 121 123 121 119 115 111 107 107 106 103 101 100 98 95 92 92 93 92 91 89 87 85 84 82 80 78 74 68 63 66 72 71 70 61 58 66 65 63 61 58 55
117 118 125 124 123 121 118 114 110 108 106 104 102 100 98 96 94 93 94 94 92 90 88 86 85 84 80 76 70 61 56 68 69 66 61 57 58 65 64 62 60 57 55
119 122 128 123 123 123 122 118 114 110 107 105 104 102 100 99 98 96 97 96 94 92 90 89 86 84 80 75 67 54 45 67 78 70 63 53 57 64 62 59 56 54 52
123 124 127 119 121 121 120 118 116 113 110 108 107 106 105 102 100 99 99 99 97 96 93 91 88 86 81 75 63 45 34 52 80 80 66 49 52 59 59 55 52 50 46
126 129 135 133 124 117 115 114 113 111 110 110 108 102 97 97 96 95 97 100 100 99 97 95 91 88 84 77 59 30 20 37 75 72 66 43 43 52 53 49 44 42 40
134 139 145 147 139 131 118 113 112 110 108 106 104 101 98 97 96 94 93 99 102 101 100 99 97 94 90 81 51 13 360 36 72 70 56 34 38 45 46 42 40 40 40
145 146 150 152 149 142 135 125 117 112 114 114 111 122 127 122 115 98 93 98 103 104 104 106 108 110 108 99 47 356 353 72 82 78 53 34 37 41 43 41 39 39 39
161 157 155 155 149 145 141 141 139 134 143 141 142 162 167 117 106 103 94 98 105 109 114 121 131 148 165 162 169 328 16 68 84 90 60 43 38 38 41 41 39 39 40
166 160 161 154 147 144 141 155 153 147 163 152 158 171 121 106 115 118 116 118 122 140 141 155 187 197 89 61 57 48 31 50 67 84 68 53 45 43 44 44 43 43 45
171 168 170 157 150 147 151 157 150 147 157 151 156 157 138 141 150 151 156 165 170 172 159 163 141 95 90 73 61 52 41 50 65 86 80 66 54 51 51 50 48 48 48
175 173 177 168 159 155 155 158 157 154 159 153 153 168 158 152 160 154 153 160 168 148 165 156 137 130 118 88 68 58 49 60 73 86 88 75 65 59 58 56 54 53 53
177 175 176 177 170 160 161 166 165 160 158 152 158 175 172 160 159 154 150 167 158 161 162 154 140 141 129 110 91 74 47 53 67 94 105 84 71 66 64 61 58 56 55
176 173 175 179 177 170 171 175 174 167 157 159 164 175 178 165 162 161 157 168 164 150 137 136 129 124 136 151 172 138 107 93 86 96 109 110 88 72 71 66 62 58 56
175 174 175 177 181 178 178 182 178 177 168 168 166 172 179 176 169 166 161 172 165 152 160 168 168 177 188 181 118 83 107 119 106 99 91 98 105 94 77 74 66 61 57
180 176 175 177 182 181 181 184 184 180 177 176 171 174 181 183 177 168 169 172 164 162 173 170 176 177 173 151 122 85 82 110 115 106 96 88 90 103 100 84 74 65 58
181 177 176 177 181 179 179 184 188 188 186 186 182 181 178 182 183 177 175 173 166 166 175 173 182 179 159 146 131 163 141 134 120 115 111 100 94 94 95 95 83 70 63
181 181 180 180 182 180 183 187 190 192 190 194 194 185 181 181 183 183 178 178 173 177 183 181 176 182 189 161 134 113 100 119 123 126 122 117 108 99 89 81 75 77 68
186 187 186 185 184 185 188 188 189 185 191 194 195 193 188 186 184 188 184 183 181 183 187 186 178 175 185 175 168 159 155 128 135 136 127 125 125 110 98 91 82 77 81
191 192 191 189 187 188 185 181 182 187 185 192 199 199 197 191 188 188 190 187 187 186 192 193 186 180 185 196 190 176 178 187 153 149 144 138 134 121 114 106 95 87 89
197 193 193 191 189 188 186 187 186 191 196 196 193 195 194 194 193 192 193 193 191 192 195 195 193 189 179 186 198 199 187 160 154 157 159 148 138 132 131 119 108 97 98
193 193 195 194 194 190 190 193 194 200 200 192 187 190 194 197 199 198 196 196 197 197 198 196 192 194 193 185 176 173 184 191 177 156 170 170 145 138 136 130 122 109 99
189 190 193 197 199 195 194 196 200 203 199 194 193 193 195 196 200 203 201 200 200 200 199 199 196 196 198 193 183 171 166 171 187 179 172 165 161 157 142 134 130 124 113